Temp
15 13 15 17 17 16 15 14 14 15 17 16 16 17 18 19 20 20 21 21 21 21 21 19 19 19 19 18 19 16 12 11 10 10 11 12 13 13 14 13 13 12 12 12
15 16 17 16 15 15 15 14 13 16 18 17 16 16 18 20 21 21 20 20 20 20 20 19 19 18 19 18 18 12 12 11 10 11 10 11 12 13 13 12 12 11 11 11
15 17 16 15 15 14 15 14 15 15 16 17 16 16 19 21 21 21 20 20 20 20 19 19 19 18 18 18 16 12 11 10 10 10 10 10 11 12 11 11 10 10 11 11
15 16 15 15 14 15 12 16 16 15 14 12 13 13 16 19 21 22 21 20 20 19 19 19 18 19 18 18 15 11 11 10 10 10 10 11 10 11 11 11 10 10 10 11
15 16 15 14 16 16 14 16 15 15 12 11 14 12 17 20 21 20 20 19 19 18 18 18 19 18 18 18 14 11 10 10 10 10 9 9 9 12 12 10 10 9 9 10
15 16 14 15 15 15 16 15 16 14 12 12 17 16 17 19 20 20 20 18 17 16 16 18 19 18 18 16 12 10 10 9 9 9 9 10 11 11 11 10 9 9 9 9
16 17 15 14 15 18 15 15 13 15 14 16 19 17 18 20 21 20 18 16 16 14 16 17 18 18 17 13 11 10 10 10 9 9 10 11 12 11 11 10 10 10 9 9
14 14 16 16 15 15 15 14 12 12 14 15 17 16 18 21 21 18 18 16 14 13 15 17 18 18 17 12 10 10 9 9 9 9 10 11 11 12 11 11 10 10 10 9
16 16 17 17 17 15 15 13 15 12 15 15 17 19 20 20 18 17 17 14 13 14 16 16 17 18 13 11 10 10 9 9 9 10 11 12 11 11 11 11 11 11 9 8
17 14 17 16 16 16 15 16 13 13 12 13 16 17 17 18 16 17 16 14 12 13 15 16 17 16 13 11 10 9 9 9 9 9 11 11 12 12 11 11 10 9 9 8
16 15 16 17 16 17 16 14 12 11 12 12 13 16 19 17 17 15 13 12 11 11 15 16 16 13 12 10 10 9 9 9 9 9 11 11 12 11 11 10 9 9 8 8
16 15 14 15 18 17 16 15 16 12 13 13 13 14 20 18 16 12 9 11 11 13 14 12 11 11 10 10 9 9 9 8 9 8 8 10 11 11 10 10 9 8 8 8
16 15 14 17 16 15 15 17 16 15 13 12 12 15 19 19 14 12 9 10 10 11 11 11 11 10 10 9 9 9 9 9 8 8 8 8 8 9 9 9 8 8 7 7
14 14 14 14 16 16 15 15 15 15 13 14 15 16 18 16 12 10 10 10 10 11 11 11 10 10 10 9 9 8 8 8 8 8 8 8 8 7 7 7 8 7 7 7
14 13 14 15 15 15 14 14 15 14 15 14 16 16 16 14 10 9 10 9 10 10 10 11 10 10 10 9 8 8 8 8 8 8 8 8 8 7 7 7 7 7 7 7
14 13 14 12 15 15 14 15 15 15 16 16 16 15 16 13 11 10 9 9 10 10 10 10 10 9 8 8 8 7 8 8 8 8 8 7 7 7 6 6 6 6 6 6
14 13 13 12 15 14 16 17 16 16 17 16 15 16 15 12 10 9 9 10 9 9 10 10 9 9 8 8 8 8 7 7 7 7 6 7 6 6 6 6 6 5 5 5
14 12 12 11 14 15 17 18 16 15 16 16 16 15 14 12 11 9 8 7 9 9 9 10 9 8 7 7 7 6 6 6 6 6 7 6 6 6 5 5 5 5 5 5
13 13 12 12 13 16 17 16 15 14 16 16 14 15 14 13 13 11 8 7 7 7 7 6 6 7 6 6 6 6 5 5 5 5 5 5 5 5 5 5 5 5 5 4
11 13 12 13 11 14 17 15 14 14 15 15 15 14 13 13 15 12 7 7 7 7 6 6 6 6 6 5 6 5 4 4 3 3 4 5 6 5 5 5 4 4 4 4
9 10 11 12 12 14 17 15 14 15 16 15 15 14 12 11 11 10 7 8 7 6 5 5 5 5 5 5 6 4 3 3 3 4 5 5 5 6 5 5 4 4 4 4
12 12 11 12 11 11 17 14 15 16 15 15 15 13 11 11 11 10 8 10 9 7 6 5 4 4 4 5 5 4 3 3 4 4 4 5 5 5 5 4 4 4 4 4
14 16 15 14 14 16 15 15 15 14 13 13 13 13 11 10 11 9 8 9 9 9 7 5 5 5 4 5 5 4 4 4 4 5 4 4 4 4 4 4 4 4 4 4
14 15 14 14 17 15 16 15 14 13 12 12 12 12 11 11 10 9 7 8 9 8 8 7 7 7 7 7 5 5 5 5 5 4 4 4 4 4 4 4 4 4 4 4
13 12 14 14 15 15 14 14 13 13 12 12 12 11 10 10 8 8 7 7 8 8 7 8 7 7 7 6 5 5 5 5 5 4 4 4 4 4 3 3 3 4 3 3
12 14 14 16 16 16 15 14 12 12 12 12 11 11 10 9 9 8 7 7 7 7 7 7 7 6 6 5 5 5 5 5 4 4 4 3 4 3 3 3 3 3 3 3
Height
816 822 814 802 803 804 806 805 799 792 778 774 767 753 739 728 728 719 713 712 711 709 710 715 717 720 722 724 727 729 734 740 746 753 755 768 763 770 776 779 785 790 789 790
817 810 800 806 808 807 804 804 798 777 768 767 762 746 734 717 712 708 709 708 708 707 705 707 710 713 715 719 722 725 729 738 744 749 747 762 771 767 771 776 784 788 788 789
814 801 803 807 805 803 799 798 786 780 768 766 758 740 718 709 707 703 705 705 703 703 702 702 703 706 708 712 716 722 727 734 740 749 753 757 768 772 769 773 782 788 787 788
808 801 807 804 803 797 802 784 778 777 781 780 776 759 729 713 702 695 699 699 699 701 698 693 696 698 700 705 713 719 725 731 736 743 748 744 767 769 770 769 782 784 788 788
807 801 802 802 794 792 792 782 781 777 780 784 761 770 717 704 695 695 698 699 698 699 695 690 687 690 694 699 710 718 720 727 732 739 742 748 757 772 773 774 779 782 787 790
805 800 806 798 792 790 784 782 771 766 775 774 735 742 712 707 699 694 690 697 700 702 694 683 678 683 688 695 706 715 719 723 729 737 742 751 752 764 775 775 777 781 788 790
795 788 795 799 793 777 784 781 779 761 760 743 721 726 712 696 690 690 695 701 699 694 682 674 671 676 683 690 703 711 716 722 729 735 747 744 756 766 774 774 775 782 788 790
806 800 792 789 790 788 785 788 796 779 760 738 731 728 706 688 684 693 694 695 695 686 675 667 666 673 677 688 700 709 715 720 727 734 740 739 755 761 771 773 776 785 788 790
798 791 781 782 779 787 781 792 781 783 756 743 721 703 692 686 695 695 692 693 690 680 670 666 666 671 681 688 697 705 713 720 725 727 738 741 760 760 768 776 779 786 789 792
795 800 778 782 781 776 783 777 786 777 767 748 721 711 702 694 698 693 691 692 687 680 669 667 667 672 684 691 698 705 711 718 726 731 738 742 754 763 772 775 781 787 790 792
795 796 786 779 774 771 773 779 789 787 776 761 737 713 695 695 697 695 697 697 692 681 669 667 669 679 688 693 699 706 712 719 726 734 739 746 760 769 774 780 784 789 789 792
791 792 790 778 762 764 769 770 768 784 766 762 757 716 685 692 698 706 711 698 691 680 673 677 680 687 693 696 702 708 715 722 733 741 740 748 761 768 776 782 783 788 790 793
789 791 791 765 766 767 766 759 760 763 769 760 756 715 689 686 700 705 709 697 691 686 684 685 688 692 696 700 706 714 721 731 745 741 746 747 764 770 780 782 785 790 791 795
797 790 789 781 766 764 764 759 759 760 764 746 730 710 694 696 706 709 702 697 692 690 690 691 694 697 700 705 710 718 725 734 746 747 752 753 768 777 783 783 783 792 795 799
794 787 781 773 767 764 763 758 752 754 745 744 719 716 707 706 715 713 703 698 694 693 696 696 698 701 705 710 715 720 725 739 748 752 758 767 774 782 783 784 787 796 796 798
790 787 780 775 760 756 758 748 744 739 734 727 724 717 709 711 714 709 704 699 700 697 699 699 702 705 709 712 717 724 732 739 750 757 761 768 779 784 784 786 790 796 799 802
787 788 783 771 757 756 740 731 735 731 724 724 727 715 709 716 716 712 708 702 701 701 699 702 704 709 712 715 719 724 733 741 747 760 766 776 781 782 784 787 794 797 800 806
779 787 787 778 761 750 732 726 732 732 723 719 722 718 715 716 715 716 715 711 706 704 704 705 707 711 715 719 723 729 736 743 753 761 768 776 780 783 788 791 795 798 802 807
778 779 781 779 763 741 723 731 732 734 721 716 723 717 717 713 709 711 717 717 713 710 710 712 713 715 719 726 731 738 744 749 752 762 771 778 782 784 789 792 797 804 806 809
780 778 778 770 774 747 724 732 735 735 723 720 719 717 718 715 700 710 720 716 715 719 717 716 717 719 724 733 736 742 748 753 761 768 773 778 782 786 790 794 801 805 809 810
783 783 777 772 767 745 721 730 735 730 721 718 718 717 720 722 720 721 724 721 720 720 722 722 723 726 732 737 741 747 754 760 765 771 776 781 786 790 794 798 803 805 810 814
754 759 766 760 765 757 720 732 730 720 718 718 716 718 721 721 721 721 727 724 724 726 728 729 729 734 738 742 746 754 759 764 769 775 781 786 790 794 797 801 806 808 813 815
739 726 733 734 730 720 722 724 724 726 725 721 719 719 722 720 719 724 725 725 726 728 729 734 735 739 744 748 751 755 763 766 772 777 784 789 794 797 800 803 808 812 813 814
730 726 729 730 711 719 718 721 725 725 725 723 721 720 723 720 720 723 729 731 729 732 734 737 739 743 748 753 756 758 764 770 774 782 788 792 797 800 803 806 809 810 812 816
723 729 724 722 714 716 718 719 724 724 723 723 722 721 721 723 722 724 727 730 735 736 737 741 744 746 750 753 759 764 769 773 779 784 790 794 797 802 805 806 809 812 815 818
721 716 717 709 706 710 715 720 723 723 721 722 721 721 722 721 722 725 727 731 735 739 742 744 747 750 754 758 763 768 773 777 781 786 791 794 798 802 803 805 811 815 816 817
Wind_Speed
2 4 8 9 8 12 16 18 22 22 22 17 18 26 31 29 23 23 19 17 18 20 18 27 29 27 25 24 24 22 26 28 31 31 30 17 22 23 18 18 17 15 15 15
5 11 7 6 9 11 15 19 22 21 14 18 22 31 29 25 14 12 13 13 15 17 16 18 25 26 26 24 23 27 30 33 31 34 31 21 19 22 20 21 17 15 16 16
9 12 11 8 12 14 15 18 21 22 24 21 18 23 17 18 19 9 5 8 12 15 15 16 19 24 26 25 20 28 32 35 33 31 34 22 17 16 20 22 19 16 16 17
10 2 7 11 13 13 12 11 19 23 18 10 9 14 17 17 12 15 7 12 13 16 19 15 18 21 23 26 22 28 34 34 32 34 31 36 17 11 18 23 21 19 16 17
8 7 12 14 8 5 10 16 21 25 19 13 15 8 8 19 18 4 11 14 17 21 20 20 17 22 21 21 21 27 34 35 32 32 28 30 24 15 16 22 24 21 18 18
20 12 10 10 11 12 16 18 23 7 2 5 8 10 16 16 17 17 12 15 20 25 24 20 18 22 20 19 23 26 31 33 33 32 33 27 26 20 18 22 23 21 19 18
11 8 4 7 9 10 4 15 8 3 6 10 11 18 19 24 17 17 14 21 26 26 19 17 15 15 19 21 22 27 29 29 31 31 31 26 25 23 20 23 23 22 19 18
4 6 6 10 6 8 15 5 6 9 14 21 20 9 11 21 17 10 19 24 27 24 17 15 12 13 18 24 24 27 28 28 30 32 26 26 16 20 20 19 23 20 19 19
6 5 6 11 9 3 3 5 10 9 18 14 10 17 21 15 15 20 23 18 21 20 16 11 11 14 19 22 24 29 29 31 33 31 24 30 23 22 20 21 20 20 21 22
4 9 5 3 6 11 13 9 5 4 8 15 13 21 11 18 18 20 20 23 20 19 14 7 11 13 16 20 24 28 33 35 33 29 30 23 17 21 22 21 21 21 22 22
7 6 6 12 5 14 8 7 6 4 5 6 12 14 16 12 20 18 22 24 17 15 5 6 8 13 15 20 24 25 28 34 30 26 31 27 22 22 23 23 23 22 22 22
6 6 11 18 20 6 7 12 11 4 8 12 12 18 11 14 16 18 23 19 13 10 4 10 10 13 16 19 19 22 29 31 26 28 29 29 24 21 22 21 24 24 23 21
4 5 8 10 4 4 6 10 13 14 11 19 13 13 19 19 18 19 17 8 9 7 9 8 9 10 14 20 25 25 29 26 18 25 26 30 20 22 23 25 23 21 23 24
1 8 12 11 18 18 22 22 17 15 9 17 18 25 25 24 17 19 17 7 5 5 6 6 7 9 15 20 26 29 32 26 18 25 25 27 21 20 21 27 27 23 25 25
5 9 12 19 22 22 23 22 20 16 19 18 26 25 25 19 16 15 15 6 2 7 5 5 7 8 12 18 25 27 35 28 25 25 27 24 24 21 24 28 27 25 24 23
6 7 11 17 17 11 16 20 19 18 18 17 16 22 17 15 16 11 12 4 4 5 4 6 8 10 9 17 24 31 33 38 30 25 25 23 23 23 25 27 27 25 24 22
6 4 6 7 10 18 11 2 7 11 13 10 13 20 16 16 14 12 13 9 3 2 6 6 8 9 15 17 25 29 30 29 34 24 24 22 21 25 26 27 28 25 24 22
8 7 5 7 12 4 4 9 4 9 15 10 12 16 14 12 8 6 9 9 5 3 3 5 5 13 18 22 26 29 29 31 28 26 22 20 22 24 24 25 24 24 22 20
13 9 4 4 5 15 7 3 3 4 10 3 11 14 11 13 5 0 8 7 6 5 7 10 15 20 24 25 28 27 26 29 27 23 24 23 23 25 25 24 22 19 21 19
10 11 7 3 4 4 5 3 2 2 4 6 9 12 13 11 4 3 9 8 7 8 8 12 19 24 27 22 28 27 23 25 23 23 24 26 26 27 25 26 22 20 17 17
7 8 13 10 5 8 6 4 2 4 4 9 10 9 8 5 3 5 4 5 7 9 11 14 17 20 22 26 28 22 21 20 22 25 26 26 26 26 25 24 21 19 17 14
11 10 6 7 6 8 5 4 3 9 13 11 9 6 7 5 4 2 4 6 8 9 12 14 19 18 20 23 28 22 21 24 28 29 27 26 25 24 23 22 18 17 15 12
7 5 5 9 6 3 5 2 7 7 10 8 7 6 4 6 4 2 1 3 8 10 14 15 19 20 18 19 22 24 23 27 29 29 24 24 22 20 19 19 17 14 11 10
7 6 3 2 5 9 7 4 4 7 7 6 5 6 2 6 3 3 3 4 6 9 13 15 18 18 18 19 20 26 26 27 28 25 22 23 22 19 17 15 13 12 10 7
2 11 8 5 10 8 3 5 2 8 4 4 3 4 4 2 4 4 4 3 8 9 11 14 16 16 18 21 22 23 24 26 24 22 20 18 19 16 15 13 11 10 7 6
7 6 6 3 4 1 4 3 6 7 4 2 4 3 1 4 4 5 4 6 10 12 11 12 13 17 18 21 22 22 22 24 24 22 18 18 17 15 13 12 11 9 6 3
Wind_Direction
39 295 291 296 314 298 298 296 297 296 294 295 291 291 289 296 293 284 284 284 290 285 269 258 253 248 250 246 238 195 178 187 174 167 158 181 159 164 158 151 153 154 147 142
257 284 335 311 290 289 291 297 290 293 306 300 307 292 293 291 284 289 295 306 309 310 286 261 246 243 242 240 237 176 178 187 176 173 155 187 171 158 153 144 146 150 147 144
271 279 320 277 295 298 292 287 294 302 312 309 303 292 306 316 302 292 302 306 310 311 290 272 247 236 234 234 205 178 178 183 176 172 164 153 162 163 142 140 141 144 145 142
278 288 290 294 291 296 293 268 310 303 306 304 1 294 305 290 286 273 297 311 323 323 313 272 246 236 222 230 191 181 182 179 176 169 162 149 163 167 162 140 144 138 142 141
269 292 301 295 284 303 271 304 304 293 283 293 282 242 286 298 304 298 294 325 330 329 315 295 245 228 224 217 186 179 177 178 175 167 162 153 155 187 153 139 136 135 139 141
262 278 283 249 301 280 286 298 300 291 254 250 279 232 289 308 323 298 305 318 321 322 302 286 248 215 216 184 171 175 171 174 165 160 158 155 153 161 161 144 135 135 137 139
312 271 235 240 285 310 274 315 305 269 257 279 318 306 285 293 297 322 336 327 325 315 297 281 228 206 203 156 161 164 168 169 163 157 165 142 151 169 163 148 142 142 142 139
307 313 207 174 268 297 302 299 288 301 309 299 304 271 291 308 323 350 318 328 324 311 298 281 215 198 176 153 159 163 161 157 155 151 151 137 162 155 156 148 144 146 142 141
306 263 235 256 285 246 355 258 294 283 276 278 271 283 315 341 347 326 323 325 318 312 311 272 201 196 155 152 165 159 156 151 142 140 142 135 161 148 153 150 142 141 138 138
318 296 293 294 259 244 224 334 298 278 303 312 310 301 326 333 339 324 330 339 329 317 302 244 196 159 160 157 161 156 154 150 144 137 136 132 146 148 149 143 138 138 136 136
280 252 276 295 255 301 270 256 222 263 263 293 313 308 312 337 336 346 346 327 322 313 303 208 154 129 150 147 148 151 150 143 139 141 137 134 144 147 145 141 137 135 132 131
217 289 287 286 288 302 264 272 286 288 300 294 285 284 320 327 2 1 324 307 316 320 15 84 96 125 128 128 121 134 134 131 141 146 133 131 137 137 135 135 132 132 129 129
160 237 301 304 164 167 240 272 282 280 278 273 288 286 313 330 349 332 310 331 329 36 63 93 116 126 128 122 115 116 118 126 148 131 130 127 134 132 135 131 126 127 130 126
285 252 250 266 288 304 297 297 295 287 272 280 276 292 313 327 343 329 325 343 333 84 98 103 115 128 126 128 127 124 118 121 128 127 126 126 137 142 139 137 135 138 133 130
239 266 267 274 284 289 285 286 290 277 267 269 287 303 313 349 339 325 323 354 31 113 116 133 135 131 130 134 129 133 132 135 132 126 129 135 139 141 133 130 128 133 127 125
223 265 299 290 281 273 285 282 277 272 275 278 294 300 348 336 330 328 338 58 342 102 127 138 128 127 135 138 135 136 139 141 137 128 124 128 138 138 128 126 126 128 125 122
222 259 300 270 326 307 282 259 268 283 288 286 307 312 328 328 333 348 340 3 55 88 156 141 144 135 135 138 140 128 126 129 125 128 132 142 137 127 124 129 132 124 122 125
235 242 257 284 309 258 32 302 262 275 286 268 312 317 333 320 293 327 358 1 37 104 57 117 108 116 117 116 113 120 125 126 124 128 129 132 130 124 127 126 125 124 124 124
226 227 263 266 293 284 275 181 305 320 300 149 323 322 343 333 301 145 38 18 12 62 64 72 86 106 109 114 121 116 119 127 123 122 131 136 131 126 127 119 118 123 128 123
207 225 221 196 266 273 36 129 320 251 251 350 329 329 344 338 332 356 6 357 44 84 97 104 112 109 111 116 129 124 118 123 127 137 135 138 139 133 131 134 129 129 129 127
170 196 217 231 258 278 289 59 145 267 24 347 338 335 341 353 323 334 29 62 58 84 98 100 104 109 118 130 131 114 119 121 132 138 141 141 144 141 138 136 135 131 129 124
176 171 189 198 219 265 166 138 256 337 314 314 322 341 319 313 322 315 66 84 110 109 109 107 102 104 123 133 132 126 123 134 136 138 137 137 138 140 137 135 132 129 129 127
210 221 187 200 215 127 167 283 305 317 311 314 309 338 323 303 301 137 28 74 103 107 114 114 116 117 125 135 137 128 135 138 138 136 133 138 138 134 135 132 129 132 130 119
224 204 238 176 211 237 260 232 259 316 318 297 311 316 323 293 275 186 157 118 104 118 121 130 130 128 132 135 130 132 136 136 133 132 135 137 133 130 129 131 130 122 116 125
102 156 206 251 278 259 299 197 303 310 329 265 277 317 324 204 246 192 161 142 128 127 127 138 136 131 130 128 130 136 138 139 135 135 136 134 134 135 131 121 118 123 137 150
188 180 191 226 133 39 110 118 329 303 319 307 285 291 288 293 172 174 152 154 146 139 142 134 133 130 130 133 135 140 144 146 142 136 137 137 135 135 135 135 141 150 146 144